This is the latest recevied weather packets stored in our database for station/object KD4PMP. If no packets are shown the sender has not sent any weather packets the latest 10 day(s).
| Time | Temp. | Humidity | Pressure | Rain* | Wind** | Luminosity | Snow |
|---|---|---|---|---|---|---|---|
| 1788040228 | 33.89° C | 49% | 1015.8 hPa | 0 mm | - | - | - |
| 1788039622 | 33.33° C | 49% | 1015.9 hPa | 0 mm | - | - | - |
| 1788039016 | 33.89° C | 49% | 1016 hPa | 0 mm | - | - | - |
| 1788038409 | 33.89° C | 48% | 1016.1 hPa | 0 mm | - | - | - |
| 1788037803 | 34.44° C | 46% | 1016.1 hPa | 0 mm | - | - | - |
| 1788037196 | 35.56° C | 44% | 1016.2 hPa | 0 mm | - | - | - |
| 1788036590 | 36.11° C | 45% | 1016.2 hPa | 0 mm | - | - | - |
| 1788035984 | 36.11° C | 43% | 1016.3 hPa | 0 mm | - | - | - |
| 1788035378 | 35.56° C | 45% | 1016.3 hPa | 0 mm | - | - | - |
| 1788034771 | 35.56° C | 46% | 1016.5 hPa | 0 mm | - | - | - |
| 1788034165 | 35.56° C | 47% | 1016.6 hPa | 0 mm | - | - | - |
| 1788033558 | 35.56° C | 45% | 1016.8 hPa | 0 mm | - | - | - |
| 1788032952 | 35° C | 46% | 1016.9 hPa | 0 mm | - | - | - |
| 1788032346 | 33.89° C | 47% | 1016.9 hPa | 0 mm | - | - | - |
| 1788031739 | 34.44° C | 47% | 1017.2 hPa | 0 mm | - | - | - |
| 1788031133 | 33.89° C | 49% | 1017.1 hPa | 0 mm | - | - | - |
| 1788030526 | 33.89° C | 49% | 1017.2 hPa | 0 mm | - | - | - |
| 1788029920 | 33.33° C | 53% | 1017.4 hPa | 0 mm | - | - | - |
| 1788029313 | 33.33° C | 53% | 1017.5 hPa | 0 mm | - | - | - |
| 1788028707 | 32.22° C | 55% | 1017.5 hPa | 0 mm | - | - | - |
| 1788028101 | 32.22° C | 54% | 1017.5 hPa | 0 mm | - | - | - |
| 1788027494 | 31.67° C | 56% | 1017.7 hPa | 0 mm | - | - | - |
| 1788026888 | 31.67° C | 57% | 1017.8 hPa | 0 mm | - | - | - |
| 1788026282 | 32.22° C | 56% | 1017.9 hPa | 0 mm | - | - | - |
| 1788025675 | 32.22° C | 58% | 1017.9 hPa | 0 mm | - | - | - |
* Rain latest hour (hover to see other rain measurements)
** Current wind speed in m/s (hover to see current wind gust speed)